Погода в Ожигово

Россия / Владимирская область     55°49′42″N   42°06′06″E
темп.,
°C
ветер,
м/с
пор.,
м/с
влажн.,
%
обл.,
%
осадки,
мм/ч
давл.,
гПа
погр.,
м
29 ноября, пн
пн2900:000ююз2797100 0.0 1012153
03:00−1ю2598100 0.0 1012111
06:00+1ююв2498100 0.0 101185
09:00+2юв3896100 0.0 1010182
12:00+3юв41097100 0.0 1008258
15:00+3вюв4995100 0.0 1005286
18:00+3вюв41097100 0.6 1002355
21:00+3юв51198100 0.8 998367
30 ноября, вт
вт3000:00+4юв61498100 0.1 993449
03:00+6юв81894100 4.7 986952
06:00+8ююв91890100 3.8 978952
09:00+9ю101888100 6.8 9741159
12:00+7юз122083100 0.4 9781352
15:00+4юз111867100 0.5 9801514
18:00+2ююз112084100 0.1 9811565
21:00+1юз11197099 0.3 9821481
1 декабря, ср
ср100:000ююз101874100 0.1 9851441
03:000юз81574100 0.1 9871324
06:00−1юз61178100 0.1 9881161
09:00−1юз697428 0.1 9891002
12:000зюз5867100 0.0 9901072
15:00−1зюз486774 0.0 990841
18:00−2зюз497167 0.0 991551
21:00−2зюз5971100 0.0 992932
2 декабря, чт
чт200:00−3зюз5990100 0.3 993769
03:00−4з6980100 1.1 995918
06:00−5з6107683 0.0 998778
09:00−6зюз49765 0.0 1001631
12:00−4зюз5766100 0.0 1003624
15:00−3ююз4864100 0.0 1003520
18:00−3ю51265100 0.0 1002626
21:00−3ю61391100 0.1 1000642
3 декабря, пт
пт300:00−1ююз61495100 0.5 1000644
03:000юз61396100 0.6 1000594
06:00+1юз51298100 0.0 1001573
09:00+1ююз51297100 0.0 1003615
12:00+2ююз51196100 0.0 1004594
15:00+2ю51094100 0.0 1005380
18:00+1ю61498100 1.3 1004655
21:00+3ю71694100 3.4 1001878